Flag for Guadeloupe Weather past 2 weeks in Basse-Terre, Guadeloupe

77 °F

Passing clouds.

Feels Like: 78 °F
Forecast: 74 / 81 °F
Wind: 5 mph from East

Location: Le Raizet - Guadeloupe

Current Time: Nov 28, 2015 at 4:33:14 AM

Latest Report: Nov 28, 2015 at 4:00 AM

Visibility: N/A

Pressure: 29.86 "Hg

Humidity: 89%

Dew point: 73 °F

Location of Basse-TerreLocation

Historic Weather in Basse-Terre — Graph


Basse-Terre temperature yesterday

Maximum temperature yesterday: 86 °F (at 10:00 AM)
Minimum temperature yesterday: 73 °F (at 2:30 AM)
Average temperature yesterday: 80 °F

Past Weeks' High & Low Weather Summary

High88 °F (Nov 14, 11:30 AM)100% (Nov 14, 5:30 AM)30.04 "Hg (Nov 14, 5:30 AM)
Low68 °F (Nov 21, 4:00 AM)51% (Nov 21, 10:30 AM)29.80 "Hg (Nov 20, 3:30 AM)
Average79 °F81%29.92 "Hg
* Reported Nov 13 3:00 AM — Nov 28 3:30 AM, Basse-Terre, Weather by CustomWeather, © 2015

Note: Actual official high and low records may vary slightly from our data, if they occured in-between our weather recording intervals... More about our weather records


Basse-Terre weather history for previous 24 hours

Time TempWeatherWind HumidityBarometerVisibility
3:30 AM
Sat, Nov 28
79 °FPartly cloudy.7 mph84%29.86 "HgN/A
3:00 AM77 °FPassing clouds.7 mph89%29.86 "HgN/A
2:30 AM77 °FPassing clouds.5 mph89%29.89 "HgN/A
2:00 AM77 °FPassing clouds.3 mph89%29.89 "HgN/A
1:30 AM77 °FPartly cloudy.9 mph89%29.89 "HgN/A
1:00 AM79 °FPassing clouds.7 mph89%29.92 "HgN/A
12:30 AM79 °FOvercast.5 mph89%29.92 "HgN/A
12:00 AM77 °FPassing clouds.3 mph94%29.92 "HgN/A
11:30 PM
Fri, Nov 27
79 °FPartly cloudy.9 mph89%29.92 "HgN/A
11:00 PM77 °FPassing clouds.6 mph94%29.92 "HgN/A
10:30 PM77 °FMostly cloudy.5 mph94%29.95 "HgN/A
10:00 PM77 °FHeavy rain. Fog.14 mph94%29.95 "Hg3 mi
9:30 PM79 °FPartly cloudy.6 mph89%29.92 "HgN/A
8:00 PM79 °FPassing clouds.8 mph89%29.92 "HgN/A
7:00 PM79 °FLight rain. Partly cloudy.12 mph89%29.89 "HgN/A
6:30 PM79 °FClear.9 mph89%29.89 "HgN/A
6:00 PM79 °FPassing clouds.9 mph89%29.89 "HgN/A
5:30 PM79 °FClear.7 mph89%29.89 "HgN/A
5:00 PM81 °FClear.9 mph84%29.89 "HgN/A
4:30 PM81 °FPassing clouds.8 mph84%29.89 "HgN/A
4:00 PM81 °FBroken clouds.10 mph89%29.89 "HgN/A
3:30 PM81 °FLight rain. Partly sunny.9 mph84%29.89 "HgN/A
3:00 PM82 °FPartly sunny.15 mph79%29.89 "HgN/A
2:30 PM82 °FPartly sunny.12 mph74%29.89 "HgN/A
2:00 PM84 °FPartly sunny.13 mph74%29.89 "HgN/A
1:30 PM84 °FScattered clouds.10 mph79%29.89 "HgN/A
1:00 PM79 °FLight rain. Partly sunny.8 mph89%29.92 "HgN/A
12:30 PM82 °FBroken clouds.15 mph79%29.92 "HgN/A
12:00 PM86 °FScattered clouds.14 mph66%29.92 "HgN/A
11:30 AM86 °FBroken clouds.14 mph62%29.95 "HgN/A
11:00 AM86 °FScattered clouds.15 mph66%29.95 "HgN/A
10:30 AM84 °FMostly cloudy.14 mph70%29.95 "HgN/A
10:00 AM86 °FPartly sunny.16 mph66%29.95 "HgN/A
9:30 AM84 °FBroken clouds.13 mph70%29.95 "HgN/A
9:00 AM84 °FPartly sunny.13 mph70%29.95 "HgN/A
8:30 AM82 °FPassing clouds.9 mph79%29.92 "HgN/A
8:00 AM82 °FPassing clouds.7 mph79%29.92 "HgN/A
7:30 AM79 °FPassing clouds.2 mph89%29.92 "HgN/A
7:00 AM75 °FPassing clouds.No wind94%29.92 "HgN/A
6:30 AM75 °FPassing clouds.No wind94%29.92 "HgN/A
6:00 AM75 °FClear.2 mph100%29.92 "HgN/A
5:30 AM75 °FClear.No wind100%29.92 "HgN/A
5:00 AM75 °FClear.1 mph94%29.89 "HgN/A
4:30 AM75 °FClear.2 mph94%29.89 "HgN/A
4:00 AM73 °FClear.No wind100%29.89 "HgN/A
Weather by CustomWeather, © 2015

See weather overviewHow to use our weather pages